Regional Weather Roundup
Issued by NWS

Home | Current Version | Previous Version | Text Only | Print | Product List | Glossary Off
Versions: 1 2 3 4 5 6 7 8 9 10 11 12 13 14 15 16 17 18 19 20 21 22 23 24 25 26 27 28 29 30 31 32 33 34 35 36 37 38 39 40 41 42 43 44 45 46 47 48 49 50

000
ASUS43 KMKX 260421
RWRWI

WISCONSIN REGIONAL WEATHER ROUNDUP
NATIONAL WEATHER SERVICE MILWAUKEE/SULLIVAN WI
1100 PM CDT FRI JUL 25 2014

NOTE: "FAIR" INDICATES FEW OR NO CLOUDS BELOW 12,000 FEET WITH NO
SIGNIFICANT WEATHER AND/OR OBSTRUCTIONS TO VISIBILITY.

WIZ001-002-006>008-014>016-023>028-260500-
NORTHWEST WISCONSIN

CITY           SKY/WX    TMP DP  RH WIND       PRES   REMARKS
SUPERIOR ARPT  CLOUDY    64  61  93 CALM      29.77S
ASHLAND        CLOUDY    68  65  90 SW5       29.79F
HAYWARD        CLOUDY    68  66  93 CALM      29.82S
SIREN          CLOUDY    71  67  87 S8        29.80S
RICE LAKE      DRIZZLE   69  66  91 SE5       29.84S
LADYSMITH      CLOUDY    69  65  86 S6        29.85S
EAU CLAIRE     CLOUDY    71  65  81 S13       29.83R
MENOMONIE      CLOUDY    72  66  83 S6        29.83R
NEW RICHMOND   CLOUDY    72  68  89 S7        29.82R
OSCEOLA        CLOUDY    72  70  93 SE6       29.82S
$$

WIZ003>005-009-010-017-018-260500-
NORTH CENTRAL WISCONSIN

CITY           SKY/WX    TMP DP  RH WIND       PRES   REMARKS
WOODRUFF       CLOUDY    64  62  91 SW7       29.84S
RHINELANDER    CLOUDY    64  61  90 SW8       29.86S
EAGLE RIVER    CLOUDY    64  63  96 SW7       29.84S FOG
LAND O LAKES   CLOUDY    65  63  91 SW3       29.85R
PHILLIPS       CLOUDY    65  64  94 S5        29.85R
TOMAHAWK       CLOUDY    64  61  91 CALM      29.86R
MEDFORD        CLOUDY    64  62  91 S7        29.86R
MERRILL        CLOUDY    65  63  92 SW3       29.86R
$$

WIZ029-030-035-036-043>047-260500-
CENTRAL WISCONSIN

CITY           SKY/WX    TMP DP  RH WIND       PRES   REMARKS
WAUSAU         CLOUDY    66  62  87 S7        29.84S
MOSINEE        CLOUDY    63  63 100 S8        29.88R
MARSHFIELD     CLEAR     65  62  90 S7        29.86R
STEVENS POINT  PTCLDY    64  60  87 S6        29.86S
WAUPACA        MOCLDY    68  63  82 S6        29.86F
WAUTOMA        CLOUDY    68  63  84 CALM      29.88S
WISC RAPIDS    CLEAR     65  62  90 S5        29.87S
CAMP DOUGLAS   CLEAR     66  65  97 S6        29.87R
$$

WIZ011>013-019>022-031-037>040-048>050-260500-
NORTHEAST WISCONSIN

CITY           SKY/WX    TMP DP  RH WIND       PRES   REMARKS
ANTIGO         CLOUDY    62  61  96 SW5       29.87S
STURGEON BAY   CLEAR     63  57  82 S7        29.87R
GREEN BAY      CLOUDY    67  61  81 S3        29.86F
MANITOWOC      CLOUDY    67  59  75 S6        29.88F
APPLETON       CLOUDY    68  61  77 SW7       29.88F
CLINTONVILLE   CLOUDY    66  61  82 SW6       29.85S
OSHKOSH        CLOUDY    68  62  81 S8        29.87F
$$

WIZ032>034-041-042-053>061-260500-
SOUTHWEST WISCONSIN

CITY           SKY/WX    TMP DP  RH WIND       PRES   REMARKS
LA CROSSE      CLOUDY    71  64  78 SE9       29.84R
SPARTA         CLOUDY    67  61  80 S6        29.87R
VIROQUA        CLOUDY    66  64  91 S3        29.88S
BOSCOBEL       CLOUDY    70  62  76 S6        29.88R
PRAIRIE DU CHI CLOUDY    68  63  83 SE8       29.86R
PLATTEVILLE    CLOUDY    66  62  89 SE13      29.89S
$$

WIZ056-057-062-063-064-067-068-260500-
SOUTH CENTRAL WISCONSIN

CITY           SKY/WX    TMP DP  RH WIND       PRES   REMARKS
BARABOO/DELLS  PTCLDY    64  59  83 S8        29.88S
LONE ROCK      CLOUDY    72  63  73 E3        29.88R
WATERTOWN      CLEAR     63  61  94 SE5       29.88F
MADISON        PTCLDY    68  61  78 S12       29.89F
MIDDLETON      CLOUDY    68  61  77 S10       29.89S
MONROE         CLOUDY    64  61  88 S10       29.90S
JANESVILLE     CLOUDY    68  59  73 S8        29.90S
$$

WIZ051-052-058>065-066-070>072-260500-
SOUTHEAST WISCONSIN

CITY           SKY/WX    TMP DP  RH WIND       PRES   REMARKS
MILWAUKEE      MOCLDY    67  59  75 SW5       29.91F
WAUKESHA       CLOUDY    64  59  82 S7        29.92F
MILWAUKEE/TIMM CLOUDY    68  57  68 S6        29.91S
RACINE         CLOUDY    67  59  75 SW5       29.93F
BURLINGTON     CLOUDY    64  59  84 SW6       29.92S
KENOSHA        CLOUDY    65  60  84 SW3       29.92F
FOND DU LAC    PTCLDY    65  60  84 S5        29.88F
SHEBOYGAN      CLOUDY    66  60  81 S3        29.89F
WEST BEND      CLOUDY    66  59  77 S5        29.90F
JUNEAU         CLEAR     65  59  82 SE7       29.90F
$$

LSZ147-162-260500-
LAKE SUPERIOR

STATION/POSITION TIME  TEMP    WIND        PRES    WAVE
                       AIR SEA DIR/SP/G            HT/PER
                 (UTC) (F)     (DEG/KT/KT) (MB)    (FT/S)
W MID LAKE BUOY  0350   53 48  140/  4/  4 1008.0R   0
PORT WING        0340   70     190/  6/ 10 1008.1S
SAXON HARBOR     0340          190/  5/ 10 1008.5R
$$

LMZ867-665-643>646-260500-
LAKE MICHIGAN

STATION/POSITION TIME  TEMP    WIND        PRES    WAVE
                       AIR SEA DIR/SP/G            HT/PER
                 (UTC) (F)     (DEG/KT/KT) (MB)    (FT/S)
N MID LAKE BUOY  0350   59 55  210/ 12/ 14 1010.2F   2/ 5
NORTHPORT PIER   0300   63     170/  4/  8 1010.8F
KEWAUNEE LAKESHO 0400   53     180/  7/  8 1012.0F
SHEBOYGAN LAKESH 0400   65     180/  6/  7 1012.2F
PORT WASHINGTON  0340   61      CALM  /  3 1012.9S
ATWATER BUOY     0400   62     190/  6     1013.7F
MILWAUKEE LAKESH 0400   69     220/  8/  9   N/A
S MID LAKE BUOY  0350   64 62  180/  8/ 10 1013.4F   1/ 4
KENOSHA   LAKESH 0400   67     210/  6/  9 1012.5F
$$

TC  - TEMPERATURE IN CELSIUS
VSB - VISIBILITY IN STATUTE MILES
WCI - WIND CHILL INDEX
HX  - HEAT INDEX




USA.gov is the U.S. government's official web portal to all federal, state and local government web resources and services.